RH
57 61 67 64 65 66 61 64 67 69 73 70 65 61 53 45 41 28 13 8 9 11
62 66 64 63 68 70 73 71 70 73 76 71 65 63 57 49 39 26 13 9 10 12
59 63 65 63 67 72 74 75 73 77 76 70 65 63 59 52 36 25 14 10 12 15
58 64 68 65 69 74 77 77 76 79 76 70 65 63 59 53 35 25 14 12 13 18
60 66 69 70 72 75 78 78 80 79 74 71 66 64 61 53 34 24 15 14 16 20
61 68 71 71 74 75 78 78 81 76 72 72 66 65 62 53 32 24 16 16 18 22
71 74 74 74 75 77 81 81 79 74 74 75 67 66 60 49 30 24 18 18 21 26
75 79 71 72 74 81 83 82 78 72 74 73 71 67 57 43 30 24 19 20 26 31
74 69 69 68 76 80 83 76 75 74 77 73 73 65 55 36 30 23 21 23 30 34
64 68 70 73 77 81 79 74 75 75 76 74 71 63 50 35 29 23 23 27 33 36
61 66 69 78 81 81 75 74 75 75 73 73 68 60 44 37 30 25 27 31 36 40
62 68 75 80 82 79 76 75 76 74 74 71 65 50 43 36 30 28 31 35 40 43
62 69 78 80 82 79 80 77 75 76 75 70 57 48 43 35 31 31 33 38 42 41
68 74 82 83 79 77 82 78 76 78 74 64 52 49 43 37 34 35 38 39 39 38